Simultaneous Nadir Overpasses (SNOs) Predictions

Prediction of SNOs between GOES-16 and NOAA-20 Satellite Orbit:

Table of predicted SNOs for the next 14.0 days since TLE Epoch: 10/14/2023
Index Date Time (GOES-16) GOES-16 Lat,Lon NOAA-20 Lat,Lon Distance(km) Time Diff (sec)
1 10/14/2023 06:37:44 0.03, -75.21 0.65, -77.96 314.29 14
2 10/15/2023 06:17:23 0.03, -75.21 -0.35, -73.42 203.33 80
3 10/16/2023 18:39:18 -0.03, -75.23 -0.81, -78.72 398.54 80
4 10/17/2023 18:23:11 -0.03, -75.23 0.20, -74.19 119.21 80
5 10/19/2023 06:44:57 0.03, -75.23 0.94, -79.45 480.31 80
6 10/20/2023 06:26:10 0.03, -75.24 -0.07, -74.91 37.43 80
7 10/22/2023 18:26:37 -0.02, -75.26 -0.11, -75.67 46.63 80
8 10/23/2023 18:10:30 -0.02, -75.27 0.91, -71.13 471.58 80
9 10/25/2023 06:32:15 0.01, -75.28 0.27, -76.39 126.59 80
10 10/26/2023 06:10:48 0.01, -75.29 -0.75, -71.85 392.16 80
11 10/27/2023 18:32:42 -0.01, -75.32 -0.43, -77.14 207.84 80
